Pendleton, OR

11:19 AM PST on February 23, 2018 (GMT -0800)
Eastern Oreg Regional At Pendleton

Weather History for KPDT - June, 2013

Change the Weather History Date:

Saturday, June 8, 2013

  Actual Average Record
Temperature  
Mean Temperature 71 °F 63 °F  
Max Temperature 88 °F 76 °F 102 °F (2015)
Min Temperature 53 °F 50 °F 35 °F (1910)
Degree Days  
Heating Degree Days 0 4  
Month to date heating degree days 12 34  
Since 1 June heating degree days 12 34  
Since 1 July heating degree days 5034 5227  
Cooling Degree Days 6 2  
Month to date cooling degree days 28 12  
Year to date cooling degree days 59 35  
Since 1 June cooling degree days 28 12  
Growing Degree Days 20 (Base 50)    
Moisture  
Dew Point 38 °F    
Average Humidity 39    
Maximum Humidity 64    
Minimum Humidity 13    
Precipitation  
Precipitation 0.00 in 0.04 in 0.79 in (2004)
Month to date precipitation 0.00 0.36  
Year to date precipitation 4.03 6.77  
Snow  
Snow 0.00 in 0.00 in 0.00 in (2002)
Month to date snowfall 0.0 0.0  
Year to date snowfall 0.2 7.7  
Since 1 July snowfall 2.0 15.2  
Snow Depth 0.00 in    
Sea Level Pressure  
Sea Level Pressure 29.96 in    
Wind  
Wind Speed 9 mph (West)    
Max Wind Speed 20 mph    
Max Gust Speed 24 mph    
Visibility 10 miles    
Events      
T = Trace of Precipitation, MM = Missing Value Source: NWS Daily Summary

Daily Weather History Graph

Daily Weather History Graph

Search for Another Location

Airport or City:

Trip Planner

Search our weather history database for the weather conditions in past years. The results will help you decide how hot, cold, wet, or windy it might be!

Date:

Astronomy

Jun. 08, 2013 Rise Set
Actual Time 5:06 AM PDT 8:43 PM PDT
Civil Twilight 4:28 AM PDT 9:20 PM PDT
Nautical Twilight 3:38 AM PDT 10:11 PM PDT
Astronomical Twilight 2:31 AM PDT 11:18 PM PDT
Moon 5:20 AM PDT (6/8) 8:46 PM PDT (6/8)
Length of Visible Light 16h 52m
Length of Day
15h 36m
New Moon, 0% of the Moon is Illuminated
Jun 8
New Moon
Jun 16
First Quarter
Jun 23
Full
Jun 29
Last Quarter
Jul 8
New

Hourly Weather History & Observations

Time (PDT) Temp. Dew Point Humidity Pressure Visibility Wind Dir Wind Speed Gust Speed Precip Events Conditions
12:53 AM 63.0 °F 45.0 °F 52% 29.99 in 10.0 mi West 19.6 mph 28.8 mph N/A   Clear
1:53 AM 61.0 °F 46.9 °F 60% 30.00 in 10.0 mi West 15.0 mph - N/A   Clear
2:53 AM 60.1 °F 48.0 °F 64% 30.00 in 10.0 mi WSW 10.4 mph - N/A   Clear
3:53 AM 59.0 °F 46.0 °F 62% 30.01 in 10.0 mi WSW 11.5 mph - N/A   Clear
4:53 AM 57.0 °F 44.1 °F 62% 30.01 in 10.0 mi Calm Calm - N/A   Clear
5:53 AM 55.9 °F 41.0 °F 57% 30.03 in 10.0 mi SW 3.5 mph - N/A   Clear
6:53 AM 60.1 °F 39.0 °F 46% 30.03 in 10.0 mi SW 4.6 mph - N/A   Clear
7:53 AM 64.9 °F 39.0 °F 39% 30.03 in 10.0 mi WSW 6.9 mph - N/A   Clear
8:53 AM 69.1 °F 33.1 °F 26% 30.02 in 10.0 mi West 12.7 mph - N/A   Clear
9:53 AM 72.0 °F 35.1 °F 26% 30.02 in 10.0 mi West 12.7 mph - N/A   Clear
10:53 AM 75.0 °F 34.0 °F 22% 30.00 in 10.0 mi WNW 9.2 mph - N/A   Clear
11:53 AM 78.1 °F 28.9 °F 17% 29.99 in 10.0 mi WSW 8.1 mph - N/A   Clear
12:53 PM 80.1 °F 28.9 °F 15% 29.97 in 10.0 mi West 12.7 mph - N/A   Clear
1:53 PM 82.9 °F 32.0 °F 16% 29.96 in 10.0 mi NW 8.1 mph - N/A   Clear
2:53 PM 82.9 °F 33.1 °F 17% 29.94 in 10.0 mi Variable 4.6 mph 16.1 mph N/A   Clear
3:53 PM 86.0 °F 30.9 °F 14% 29.92 in 10.0 mi West 6.9 mph - N/A   Clear
4:53 PM 86.0 °F 32.0 °F 14% 29.91 in 10.0 mi NW 8.1 mph - N/A   Clear
5:53 PM 86.0 °F 33.1 °F 15% 29.89 in 10.0 mi West 10.4 mph - N/A   Clear
6:53 PM 84.0 °F 37.0 °F 19% 29.88 in 10.0 mi WNW 13.8 mph - N/A   Clear
7:53 PM 80.1 °F 39.9 °F 24% 29.89 in 10.0 mi West 13.8 mph - N/A   Clear
8:53 PM 73.0 °F 43.0 °F 34% 29.89 in 10.0 mi West 11.5 mph - N/A   Clear
9:53 PM 72.0 °F 42.1 °F 34% 29.90 in 10.0 mi North - - N/A   Clear
10:53 PM 71.1 °F 42.1 °F 35% 29.90 in 10.0 mi North - - N/A   Clear
11:53 PM 66.9 °F 43.0 °F 42% 29.92 in 10.0 mi North - - N/A   Clear